Theta_e
327 328 328 328 328 327 328 330 330 329 330 331 331 331 331 329 326 309 305 314 325 346 341 317 312 312 310 306 308 306 300 296 298 297 301 300 299 300 300 298 296 298 298 296 292
328 328 327 327 327 328 329 330 330 330 330 330 331 330 329 327 309 305 325 340 345 346 312 310 309 311 305 304 304 304 299 298 301 301 301 301 300 299 298 296 296 296 294 291 291
327 326 327 327 327 329 329 329 329 330 330 330 331 330 328 324 306 305 336 341 342 338 314 311 309 309 306 304 301 300 298 300 300 300 301 301 299 299 297 296 299 298 295 290 290
327 326 326 327 328 329 329 329 329 329 330 330 329 329 327 310 298 306 337 334 335 318 310 307 306 304 302 300 300 298 298 298 300 300 299 299 300 296 297 304 302 301 297 291 290
326 325 326 327 328 328 328 328 328 329 329 328 328 328 311 303 304 308 330 321 309 308 305 305 303 301 299 298 299 298 297 297 298 298 299 298 298 299 297 301 298 297 293 291 291
326 326 326 326 326 326 326 327 328 328 327 327 328 326 306 299 307 309 308 308 308 307 305 305 303 302 298 298 298 298 297 296 296 297 297 296 296 297 299 299 298 295 294 293 292
326 326 326 325 325 325 325 326 328 326 326 327 328 312 304 303 308 309 309 306 307 307 306 305 303 303 299 297 298 296 294 294 294 295 296 296 293 293 299 296 296 295 295 294 292
325 325 324 323 323 324 324 325 325 324 325 327 328 307 301 307 308 307 309 307 308 307 306 305 304 300 299 298 296 294 294 291 295 294 295 295 292 297 296 295 297 295 295 294 294
324 323 322 322 322 322 323 324 324 325 327 326 307 304 300 314 305 306 307 305 305 305 305 307 303 298 298 294 291 290 290 290 292 294 293 292 292 296 294 293 295 295 295 294 294
322 321 321 321 321 321 321 322 323 318 316 313 306 300 302 300 305 305 306 306 303 303 302 301 297 294 292 292 287 288 288 289 289 292 291 290 290 295 296 293 296 296 296 295 295
321 321 320 321 321 320 314 305 302 302 303 300 299 298 300 304 304 302 303 303 302 300 295 296 293 291 292 292 292 290 288 287 288 291 291 290 290 293 296 293 294 296 296 296 296
321 320 319 320 320 319 308 303 302 304 298 301 301 300 302 301 298 299 303 298 298 294 294 292 289 293 293 292 291 289 288 287 289 290 290 290 289 294 296 295 296 296 296 296 297
320 319 319 318 318 313 309 307 311 306 297 298 301 299 300 302 297 297 300 298 295 292 291 290 292 293 292 290 289 288 287 286 287 289 290 288 287 290 294 292 293 294 296 296 296
320 319 318 316 310 308 306 310 309 304 289 292 296 298 301 301 296 301 299 297 295 292 291 290 293 292 290 289 289 286 289 288 288 287 283 289 282 288 291 292 293 295 294 295 295
319 319 317 315 307 306 308 309 306 301 281 294 296 302 300 296 297 298 300 298 292 292 292 290 290 291 289 290 290 289 292 289 289 287 286 285 284 287 289 292 294 295 296 296 296
318 318 316 311 308 307 308 305 302 289 281 292 297 295 294 296 296 298 297 299 297 293 292 291 294 292 291 291 290 292 289 288 286 285 281 284 284 287 290 292 293 296 297 297 297
317 317 313 310 306 308 306 301 288 283 291 290 292 294 293 292 293 294 293 291 290 287 286 289 290 291 292 290 291 289 286 283 281 282 282 284 283 289 294 294 294 295 296 297 296
315 314 313 312 309 306 302 293 281 287 290 294 293 293 290 292 291 292 291 289 289 289 287 285 285 290 292 290 288 287 286 282 278 279 281 283 282 289 293 294 293 294 293 293 296
312 309 308 310 310 302 296 286 285 287 292 292 292 289 289 291 290 290 289 289 290 291 288 284 285 290 290 290 290 287 285 287 283 281 279 282 285 290 292 294 294 294 293 295 296
305 303 305 310 306 301 293 289 288 292 294 293 287 289 286 287 288 288 288 290 290 290 289 287 285 289 290 291 289 288 288 284 282 279 277 280 281 286 290 292 294 295 295 296 298
304 299 304 309 304 297 289 288 291 295 296 292 290 288 289 288 288 287 289 291 291 289 289 287 286 286 288 287 287 285 284 284 284 282 279 277 281 289 291 293 292 293 295 296 297
300 293 304 303 296 290 289 292 297 295 296 295 294 292 290 289 287 288 289 291 291 291 288 287 284 282 286 287 288 287 285 285 282 280 280 279 281 294 294 293 292 295 296 296 296
297 297 307 302 290 288 291 293 295 294 294 293 292 294 292 290 287 289 291 293 292 291 288 288 285 281 285 285 286 285 285 286 284 282 279 281 285 292 292 296 295 294 296 296 294
296 289 297 296 293 290 290 291 292 295 294 294 292 293 290 289 291 288 289 292 292 291 299 293 285 286 284 286 287 284 285 285 285 281 285 284 287 292 294 295 295 296 295 294 293
295 291 293 291 293 290 292 291 290 291 293 294 291 293 291 288 288 288 289 290 291 296 290 288 284 283 284 286 285 286 286 286 283 287 284 288 289 292 295 294 294 294 292 291 293
294 295 293 292 293 292 292 291 292 292 293 291 290 292 291 289 291 288 289 289 290 288 288 286 285 284 282 286 286 285 286 287 287 288 287 288 287 294 296 293 292 295 292 291 292
300 297 295 291 289 290 291 292 293 294 293 293 293 290 289 292 293 293 293 293 293 291 287 285 284 282 283 284 284 281 285 288 287 287 288 285 292 292 291 291 293 295 291 292 293
Wind_Speed
5 5 3 5 6 6 7 8 8 8 8 10 9 9 9 10 6 1 3 3 5 8 1 1 4 3 4 4 4 2 3 3 5 6 5 4 6 2 1 4 4 7 3 2 9
5 5 3 4 5 5 7 9 9 9 10 9 10 9 10 9 3 3 2 5 8 2 2 2 2 2 4 3 3 3 2 7 4 4 4 5 6 6 4 5 6 4 3 6 14
5 3 4 5 6 5 7 8 10 10 9 9 9 9 9 4 4 1 4 7 6 5 3 2 4 3 3 2 1 2 5 2 3 3 3 3 4 6 6 7 9 13 11 13 16
5 3 2 4 5 6 7 9 11 10 9 9 9 10 9 1 1 2 5 5 4 5 3 4 3 3 3 3 2 1 3 3 1 1 2 4 3 5 11 7 2 12 9 16 20
5 3 4 2 5 6 8 9 10 10 9 9 8 9 2 4 4 0 4 6 3 3 3 2 3 4 3 3 2 3 2 2 2 3 4 2 6 7 11 13 3 5 10 18 18
6 3 2 2 4 7 9 10 10 10 8 8 8 7 3 1 2 1 3 2 3 4 2 3 3 3 4 2 3 1 3 4 4 2 3 3 3 1 4 3 11 10 13 15 19
6 4 2 2 6 8 10 10 10 11 10 6 5 2 3 9 3 1 3 2 1 2 2 1 5 3 4 2 2 0 5 5 4 3 4 3 7 12 10 3 7 13 13 14 18
4 5 2 5 8 9 10 9 10 11 8 4 1 1 5 1 1 2 2 2 3 3 5 4 6 7 3 2 4 3 3 4 1 4 1 2 10 11 2 8 14 12 12 14 18
5 4 6 7 9 10 12 10 9 5 1 3 2 3 6 1 1 1 2 2 2 3 4 3 6 4 3 3 4 5 3 3 8 6 2 4 10 7 3 7 12 12 14 14 15
2 5 6 9 9 10 12 6 1 2 4 2 1 4 2 1 1 1 1 4 4 3 2 5 5 3 3 3 4 4 4 4 6 2 3 4 21 22 14 9 17 14 14 14 16
6 6 7 8 8 9 6 3 5 3 3 6 4 3 2 2 1 1 1 3 3 5 2 3 2 6 8 6 2 2 3 5 5 4 4 9 18 23 23 10 18 19 17 17 18
4 5 7 8 7 3 1 6 2 2 5 1 4 3 2 1 2 1 1 2 2 2 1 4 6 5 3 4 4 4 3 7 7 2 4 8 20 26 23 15 16 19 18 18 15
7 7 8 9 3 2 4 4 0 2 2 5 3 2 2 5 3 3 3 2 2 2 4 6 4 3 4 3 3 4 5 4 6 5 2 8 9 6 6 5 6 11 13 11 16
9 9 9 11 4 1 2 2 2 1 5 5 1 2 1 3 2 0 1 2 1 4 4 6 2 3 2 3 7 4 4 4 5 4 3 4 11 7 8 14 6 8 8 12 13
8 7 9 6 4 3 0 2 3 4 2 2 2 1 1 4 1 1 1 2 4 3 3 7 3 4 3 5 5 7 1 1 1 1 3 2 1 11 6 9 8 7 6 7 10
10 6 6 2 3 1 2 4 4 5 5 1 2 2 1 0 1 1 1 4 1 1 1 6 2 3 4 2 2 2 1 4 3 2 1 2 3 8 5 3 11 9 11 7 9
9 7 3 1 2 1 3 4 5 3 3 0 1 0 0 1 1 1 0 1 3 2 3 5 2 1 1 1 2 4 4 4 4 2 4 4 2 13 15 10 8 13 16 13 10
8 1 3 2 2 2 4 6 3 3 5 1 2 1 2 1 0 1 0 3 1 3 1 1 6 3 2 2 2 2 4 4 5 3 5 3 7 8 8 8 9 8 9 9 8
2 3 3 4 4 3 6 3 7 6 2 1 0 1 2 1 1 2 3 3 4 7 6 3 5 1 1 1 1 2 2 2 1 2 1 4 7 11 7 7 4 10 6 8 9
3 3 1 6 2 5 5 5 4 3 1 1 1 1 1 2 1 3 2 2 1 2 1 1 4 1 1 1 3 2 3 1 2 4 6 5 5 8 8 11 13 16 13 14 16
4 3 3 4 3 6 4 7 5 5 3 3 3 2 4 2 2 2 3 2 2 1 3 3 2 3 0 5 5 2 1 3 2 3 3 6 7 7 11 11 8 12 14 15 15
3 1 3 2 4 1 4 6 2 2 1 2 3 5 5 4 3 3 5 4 1 4 2 0 4 4 8 1 1 2 5 5 4 4 4 3 11 13 12 5 6 18 18 15 11
3 1 2 4 4 3 4 3 4 3 4 4 3 4 2 4 2 5 4 1 2 4 5 5 1 4 9 1 1 4 5 3 3 2 10 8 11 4 6 16 12 13 17 13 12
3 1 4 4 0 6 4 4 3 1 2 2 2 2 2 3 4 2 3 1 2 2 3 3 4 8 9 9 3 5 5 6 7 4 15 14 29 25 20 11 14 15 16 13 12
3 3 2 3 3 3 3 1 3 3 1 3 1 5 6 4 2 5 3 2 1 0 2 4 6 6 9 10 5 14 11 14 13 21 14 28 21 25 23 14 10 8 10 10 12
4 3 2 1 1 5 3 5 8 4 4 3 3 2 4 6 8 5 3 4 7 1 5 1 5 3 6 11 15 13 16 17 20 22 19 26 24 26 17 4 5 13 7 8 11
1 1 4 1 2 4 5 5 6 4 0 1 4 1 2 7 5 5 6 6 6 7 7 6 4 2 13 3 5 8 18 21 6 7 7 10 16 4 5 6 12 16 7 7 10
Wind_Direction
270 283 296 310 300 311 312 312 313 320 306 307 315 328 331 335 310 113 55 230 296 291 202 241 72 75 67 81 56 135 85 229 231 176 238 143 194 158 106 146 217 199 217 76 130
263 277 291 294 304 319 313 313 312 312 307 318 324 338 330 335 88 67 224 332 318 249 77 79 93 82 53 76 36 100 158 226 216 195 221 188 198 174 176 190 232 224 137 120 151
262 287 298 295 305 315 317 315 309 306 312 321 333 333 332 318 68 219 347 355 6 122 93 92 92 89 105 62 33 151 212 213 268 222 201 198 219 188 190 219 209 209 183 165 172
251 243 278 296 301 327 325 316 304 301 316 328 335 330 338 299 95 216 352 9 83 120 93 95 75 100 150 202 150 276 241 197 260 283 167 210 144 227 205 228 197 214 169 171 183
260 224 243 265 329 333 312 302 298 301 319 328 331 332 29 27 253 332 6 12 62 72 62 126 146 135 206 157 140 196 289 244 265 261 233 165 238 241 247 236 197 137 166 187 194
246 224 244 332 319 308 297 293 295 301 317 324 331 326 91 301 171 38 356 68 51 73 45 54 170 163 106 131 181 177 263 265 260 226 243 233 269 187 250 234 206 188 201 200 203
249 252 230 319 317 298 286 292 299 301 305 316 334 42 89 236 146 7 42 104 53 104 109 97 129 86 134 152 166 152 327 314 230 214 246 185 267 230 236 169 211 220 221 215 217
261 258 348 340 310 293 288 294 290 288 296 298 295 80 237 263 153 57 40 82 50 58 95 110 91 101 63 134 22 11 56 349 215 166 296 178 266 259 258 196 239 230 230 226 223
244 286 5 329 296 301 290 289 293 295 179 148 115 120 274 328 62 100 102 115 68 71 65 93 66 90 61 78 354 8 276 254 310 201 128 197 284 255 192 205 250 240 234 227 233
305 355 350 300 299 305 299 285 272 129 89 150 47 50 288 239 231 57 69 102 111 103 44 45 54 77 56 89 254 267 286 255 249 218 210 234 263 273 254 219 248 249 236 230 230
2 344 325 311 322 320 342 51 22 347 45 194 211 170 260 282 349 83 62 96 101 72 206 6 67 232 225 199 208 251 239 252 250 233 220 238 262 273 272 232 246 244 239 233 232
345 331 328 326 324 329 55 81 156 161 317 325 251 281 240 203 317 301 126 139 123 218 131 8 247 247 188 146 198 218 269 269 280 185 201 295 281 276 278 255 241 247 239 236 233
4 343 335 326 321 56 82 144 240 138 97 302 237 202 199 148 230 252 139 141 161 196 195 187 225 142 174 169 197 229 211 248 253 325 226 301 274 313 288 266 260 248 242 234 230
356 354 336 333 78 247 67 13 41 257 60 284 293 286 104 121 286 232 35 140 142 222 187 229 273 203 181 238 156 277 199 242 279 8 286 10 295 303 305 302 274 287 256 256 240
339 351 351 38 162 77 332 4 90 53 344 184 210 213 104 160 237 321 298 68 208 196 124 256 212 206 208 217 170 229 167 229 62 162 0 1 264 273 322 322 342 340 348 286 260
336 337 337 47 58 73 19 55 51 45 256 216 165 203 166 175 237 83 112 56 93 187 251 250 311 205 213 79 192 90 321 58 58 93 325 245 162 284 283 295 312 308 309 312 319
343 341 52 113 152 22 74 56 36 161 335 230 255 28 14 273 300 127 77 253 196 343 349 318 245 331 128 151 42 66 45 318 338 359 240 163 166 250 283 276 251 286 304 318 305
340 93 22 56 17 77 63 54 206 247 238 294 133 131 236 195 214 2 140 286 193 105 103 48 328 170 177 186 189 150 156 166 284 273 277 133 235 250 234 286 266 258 277 290 317
4 30 40 345 358 79 77 90 215 211 238 246 51 108 296 303 206 13 229 231 224 182 173 160 275 61 50 79 79 147 179 175 235 72 327 241 277 283 293 307 296 323 298 305 319
77 70 336 324 13 68 84 233 238 218 297 78 232 150 288 298 31 25 298 202 314 187 42 204 308 50 348 98 45 185 153 6 33 292 282 276 275 246 301 308 327 334 324 322 324
60 71 261 335 73 56 174 225 256 237 205 163 189 220 219 245 175 230 255 288 18 89 136 135 132 276 350 198 195 97 203 60 159 172 258 295 242 219 253 272 316 305 311 309 312
83 102 298 39 68 31 175 203 256 250 157 212 178 199 204 172 227 236 236 234 183 159 152 69 149 253 239 350 168 166 176 157 144 241 235 251 270 251 248 303 296 317 311 310 304
114 224 344 86 161 231 266 259 223 204 211 172 218 200 187 196 237 196 225 108 181 169 174 182 238 330 331 21 352 218 198 172 102 111 215 256 270 269 285 320 327 312 323 324 310
99 86 328 52 41 147 177 228 235 281 244 160 161 110 147 226 219 249 253 163 173 179 112 147 186 191 241 234 173 231 203 207 192 207 277 240 277 289 292 322 325 324 323 318 319
39 229 201 209 257 167 169 150 193 234 202 177 198 209 176 217 227 225 221 313 218 176 118 162 221 203 245 254 245 257 251 235 210 246 242 271 277 281 291 313 295 290 304 330 330
138 140 16 122 54 132 175 222 198 249 186 244 211 148 186 196 199 214 182 209 224 166 184 156 256 210 248 243 248 258 249 253 242 254 258 260 269 274 290 310 295 328 338 317 323
99 35 106 28 85 114 220 210 206 161 45 96 129 83 244 241 226 231 211 238 235 190 210 176 205 163 277 228 312 269 232 231 208 209 211 245 257 73 328 342 327 314 314 306 320